When you browse on this site, cookies collect data to enhance your experience and personalize the content and advertising you see.
Visit our Privacy Policy to learn more. By continuing to use the site, you agree to this use of cookies and data.
  • In Spain
  • List of Countries
  • For 7 days
  • Water Temperature
  • Satellite Maps
  • Weather Map
  • Weather Widgets
  • user-avatar
    Login

    Hourly Weather Vozhovo

    Today, 17 November, Saturday

    Time Temperature Precipitation Wind Pressure Humidity
    00:00 -4°C° 0 mm 3 mps 765 mmHg 25%
    01:00 -5°C° 0 mm 3 mps 765 mmHg 25%
    02:00 -4°C° 0 mm 2 mps 765 mmHg 24%
    03:00 -4°C° 0 mm 2 mps 764 mmHg 24%
    04:00 -4°C° 0 mm 2 mps 764 mmHg 23%
    05:00 -4°C° 0 mm 2 mps 764 mmHg 23%
    06:00 -4°C° 0 mm 2 mps 763 mmHg 23%
    07:00 -4°C° 0 mm 2 mps 763 mmHg 22%
    08:00 -4°C° 0 mm 2 mps 764 mmHg 21%
    09:00 -2°C° 0 mm 2 mps 764 mmHg 20%
    10:00 -1°C° 0 mm 2 mps 763 mmHg 18%
    11:00 +2°C° 0 mm 1 mps 763 mmHg 17%
    12:00 +2°C° 0 mm 1 mps 763 mmHg 18%
    13:00 +2°C° 0 mm 1 mps 762 mmHg 20%
    14:00 +2°C° 0 mm 1 mps 761 mmHg 23%
    15:00 +2°C° 0 mm 1 mps 761 mmHg 24%
    16:00 +1°C° 0 mm 1 mps 760 mmHg 24%
    17:00 0°C° 0 mm 1 mps 760 mmHg 25%
    18:00 0°C° 0 mm 1 mps 759 mmHg 25%
    19:00 -2°C° 0 mm 2 mps 759 mmHg 26%
    20:00 -2°C° 0 mm 2 mps 758 mmHg 26%
    21:00 -2°C° 0 mm 2 mps 758 mmHg 28%
    22:00 -2°C° 0 mm 3 mps 757 mmHg 29%
    23:00 -2°C° 0 mm 3 mps 757 mmHg 30%

    Tomorrow, 18 November, Sunday

    Time Temperature Precipitation Wind Pressure Humidity
    00:00 -2°C° 0 mm 3 mps 756 mmHg 32%
    01:00 -2°C° 0 mm 3 mps 755 mmHg 33%
    02:00 -3°C° 0 mm 4 mps 755 mmHg 34%
    03:00 -3°C° 0 mm 4 mps 754 mmHg 36%
    04:00 -3°C° 0 mm 4 mps 753 mmHg 38%
    05:00 -3°C° 0 mm 4 mps 753 mmHg 39%
    06:00 -3°C° 0 mm 4 mps 752 mmHg 42%
    07:00 -3°C° 0 mm 4 mps 752 mmHg 45%
    08:00 -3°C° 0 mm 4 mps 752 mmHg 48%
    09:00 -3°C° 0.1 mm 4 mps 751 mmHg 51%
    10:00 -2°C° 0.1 mm 3 mps 751 mmHg 54%
    11:00 -1°C° 0.1 mm 3 mps 751 mmHg 57%
    12:00 -1°C° 0.1 mm 3 mps 751 mmHg 58%
    13:00 -1°C° 0.1 mm 3 mps 751 mmHg 60%
    14:00 -1°C° 0.1 mm 2 mps 751 mmHg 62%
    15:00 -1°C° 0.1 mm 2 mps 751 mmHg 65%
    16:00 -2°C° 0.1 mm 2 mps 751 mmHg 67%
    17:00 -2°C° 0.1 mm 2 mps 751 mmHg 70%
    18:00 -1°C° 0.1 mm 1 mps 751 mmHg 71%
    19:00 -1°C° 0.1 mm 1 mps 751 mmHg 73%
    20:00 -1°C° 0.1 mm 1 mps 751 mmHg 75%
    21:00 -1°C° 0.1 mm 1 mps 751 mmHg 76%
    22:00 -2°C° 0.1 mm 0 mps 751 mmHg 76%
    23:00 -2°C° 0.1 mm 0 mps 752 mmHg 77%

    Day after tomorrow, 19 November, Monday

    Time Temperature Precipitation Wind Pressure Humidity
    00:00 -2°C° 0 mm 0 mps 752 mmHg 77%
    01:00 -2°C° 0 mm 0 mps 752 mmHg 77%
    02:00 -2°C° 0 mm 0 mps 752 mmHg 78%
    03:00 -2°C° 0 mm 0 mps 752 mmHg 78%
    04:00 -2°C° 0 mm 0 mps 753 mmHg 78%
    05:00 -1°C° 0 mm 1 mps 753 mmHg 78%
    06:00 -1°C° 0 mm 1 mps 753 mmHg 78%
    07:00 -1°C° 0 mm 1 mps 753 mmHg 78%
    08:00 -1°C° 0 mm 1 mps 754 mmHg 79%
    09:00 -2°C° 0 mm 2 mps 754 mmHg 76%
    10:00 -1°C° 0 mm 2 mps 754 mmHg 73%
    11:00 -1°C° 0 mm 2 mps 755 mmHg 71%
    12:00 +1°C° 0 mm 2 mps 755 mmHg 72%
    13:00 0°C° 0 mm 3 mps 755 mmHg 73%
    14:00 0°C° 0 mm 3 mps 755 mmHg 74%
    15:00 -1°C° 0 mm 3 mps 755 mmHg 79%
    16:00 -1°C° 0 mm 3 mps 755 mmHg 83%
    17:00 -2°C° 0 mm 3 mps 755 mmHg 87%
    18:00 -2°C° 0 mm 3 mps 755 mmHg 89%
    19:00 -2°C° 0 mm 3 mps 755 mmHg 90%
    20:00 -2°C° 0 mm 3 mps 755 mmHg 91%
    21:00 -2°C° 0 mm 3 mps 755 mmHg 91%
    22:00 -3°C° 0 mm 4 mps 755 mmHg 92%
    23:00 -3°C° 0 mm 4 mps 755 mmHg 92%

    20 November, Tuesday

    Time Temperature Precipitation Wind Pressure Humidity
    00:00 -3°C° 0 mm 4 mps 755 mmHg 91%
    01:00 -3°C° 0 mm 4 mps 755 mmHg 91%
    02:00 -3°C° 0 mm 4 mps 755 mmHg 91%
    03:00 -3°C° 0 mm 4 mps 755 mmHg 91%
    04:00 -3°C° 0 mm 4 mps 755 mmHg 92%
    05:00 -3°C° 0 mm 4 mps 755 mmHg 92%
    06:00 -3°C° 0 mm 4 mps 755 mmHg 91%
    07:00 -2°C° 0 mm 4 mps 755 mmHg 90%
    08:00 -2°C° 0 mm 4 mps 755 mmHg 89%
    09:00 -2°C° 0 mm 4 mps 755 mmHg 86%
    10:00 -2°C° 0 mm 4 mps 755 mmHg 84%
    11:00 -1°C° 0 mm 4 mps 755 mmHg 81%
    12:00 -1°C° 0 mm 4 mps 755 mmHg 81%
    13:00 -1°C° 0 mm 4 mps 754 mmHg 80%
    14:00 -1°C° 0 mm 4 mps 754 mmHg 79%
    15:00 -1°C° 0 mm 3 mps 754 mmHg 82%
    16:00 -1°C° 0 mm 3 mps 754 mmHg 85%
    17:00 -2°C° 0 mm 2 mps 754 mmHg 88%
    18:00 -2°C° 0 mm 2 mps 754 mmHg 88%
    19:00 -2°C° 0 mm 2 mps 754 mmHg 88%
    20:00 -2°C° 0 mm 2 mps 754 mmHg 88%
    21:00 -2°C° 0 mm 2 mps 754 mmHg 87%
    22:00 0°C° 0 mm 1 mps 754 mmHg 86%
    23:00 0°C° 0 mm 1 mps 754 mmHg 85%

    21 November, Wednesday

    Time Temperature Precipitation Wind Pressure Humidity
    00:00 0°C° 0 mm 1 mps 754 mmHg 84%
    01:00 0°C° 0 mm 1 mps 754 mmHg 83%
    02:00 0°C° 0 mm 1 mps 753 mmHg 82%
    03:00 0°C° 0 mm 1 mps 753 mmHg 82%
    04:00 0°C° 0 mm 1 mps 753 mmHg 81%
    05:00 0°C° 0 mm 1 mps 753 mmHg 81%
    06:00 0°C° 0 mm 1 mps 753 mmHg 79%
    07:00 -2°C° 0 mm 2 mps 753 mmHg 78%
    08:00 -2°C° 0 mm 2 mps 753 mmHg 76%
    09:00 -2°C° 0 mm 2 mps 753 mmHg 73%
    10:00 -1°C° 0 mm 2 mps 753 mmHg 69%
    11:00 -1°C° 0 mm 3 mps 753 mmHg 66%
    12:00 -1°C° 0 mm 3 mps 753 mmHg 66%
    13:00 -1°C° 0 mm 3 mps 752 mmHg 66%
    14:00 -1°C° 0 mm 3 mps 752 mmHg 67%
    15:00 -1°C° 0 mm 3 mps 752 mmHg 70%
    16:00 -2°C° 0 mm 2 mps 752 mmHg 72%
    17:00 -2°C° 0 mm 2 mps 752 mmHg 75%
    18:00 -2°C° 0 mm 3 mps 752 mmHg 76%
    19:00 -2°C° 0 mm 3 mps 752 mmHg 77%
    20:00 -2°C° 0 mm 3 mps 753 mmHg 78%
    21:00 -2°C° 0 mm 3 mps 753 mmHg 78%
    22:00 -2°C° 0 mm 3 mps 753 mmHg 78%
    23:00 -2°C° 0 mm 3 mps 753 mmHg 78%

    22 November, Thursday

    Time Temperature Precipitation Wind Pressure Humidity
    00:00 -2°C° 0 mm 2 mps 753 mmHg 78%
    01:00 -2°C° 0 mm 2 mps 753 mmHg 78%
    02:00 -2°C° 0 mm 2 mps 753 mmHg 78%
    03:00 -2°C° 0 mm 2 mps 753 mmHg 78%
    04:00 -4°C° 0 mm 3 mps 753 mmHg 78%
    05:00 -4°C° 0 mm 3 mps 752 mmHg 79%
    06:00 -4°C° 0 mm 3 mps 752 mmHg 80%
    07:00 -4°C° 0 mm 3 mps 752 mmHg 80%
    08:00 -5°C° 0 mm 3 mps 752 mmHg 81%
    09:00 -4°C° 0 mm 3 mps 752 mmHg 77%
    10:00 -4°C° 0 mm 3 mps 752 mmHg 72%
    11:00 -3°C° 0 mm 4 mps 752 mmHg 68%
    12:00 -3°C° 0 mm 4 mps 752 mmHg 68%
    13:00 -3°C° 0 mm 4 mps 751 mmHg 68%
    14:00 -4°C° 0 mm 5 mps 751 mmHg 68%
    15:00 -4°C° 0 mm 5 mps 751 mmHg 71%
    16:00 -5°C° 0 mm 5 mps 751 mmHg 75%
    17:00 -5°C° 0 mm 5 mps 751 mmHg 78%
    18:00 -5°C° 0 mm 5 mps 751 mmHg 80%
    19:00 -5°C° 0 mm 5 mps 751 mmHg 83%
    20:00 -5°C° 0 mm 4 mps 751 mmHg 85%
    21:00 -5°C° 0 mm 4 mps 752 mmHg 86%
    22:00 -5°C° 0 mm 4 mps 752 mmHg 86%
    23:00 -5°C° 0 mm 3 mps 752 mmHg 87%
    Show more